Hourly Weather Ovchinniki

Today, 12 July, Sunday

Time Temperature Precipitation Wind Pressure Humidity
00:00 +14°C° 0 mm 2 mps 741 mmHg 89%
01:00 +13°C° 0 mm 1 mps 741 mmHg 90%
02:00 +12°C° 0 mm 1 mps 742 mmHg 90%
03:00 +13°C° 0 mm 1 mps 742 mmHg 88%
04:00 +13°C° 0 mm 1 mps 742 mmHg 87%
05:00 +14°C° 0 mm 1 mps 742 mmHg 86%
06:00 +13°C° 1.3 mm 1 mps 742 mmHg 89%
07:00 +13°C° 1.3 mm 1 mps 742 mmHg 93%
08:00 +13°C° 0 mm 1 mps 742 mmHg 97%
09:00 +13°C° 2.3 mm 1 mps 742 mmHg 97%
10:00 +13°C° 2.3 mm 1 mps 742 mmHg 97%
11:00 +13°C° 2.3 mm 1 mps 742 mmHg 97%
12:00 +13°C° 0.2 mm 2 mps 742 mmHg 97%
13:00 +13°C° 0.2 mm 2 mps 742 mmHg 96%
14:00 +13°C° 0 mm 2 mps 742 mmHg 95%
15:00 +13°C° 0 mm 2 mps 742 mmHg 94%
16:00 +13°C° 0 mm 2 mps 742 mmHg 94%
17:00 +14°C° 0 mm 2 mps 742 mmHg 93%
18:00 +13°C° 0 mm 1 mps 742 mmHg 94%
19:00 +13°C° 0 mm 1 mps 742 mmHg 95%
20:00 +12°C° 0 mm 1 mps 742 mmHg 96%
21:00 +12°C° 0 mm 1 mps 742 mmHg 96%
22:00 +12°C° 0 mm 1 mps 742 mmHg 96%
23:00 +12°C° 0 mm 2 mps 741 mmHg 95%

Tomorrow, 13 July, Monday

Time Temperature Precipitation Wind Pressure Humidity
00:00 +11°C° 0 mm 1 mps 741 mmHg 94%
01:00 +11°C° 0 mm 1 mps 741 mmHg 93%
02:00 +11°C° 0 mm 1 mps 741 mmHg 92%
03:00 +11°C° 0.1 mm 1 mps 741 mmHg 93%
04:00 +10°C° 0.1 mm 2 mps 741 mmHg 93%
05:00 +10°C° 0.1 mm 2 mps 741 mmHg 94%
06:00 +12°C° 0.3 mm 2 mps 741 mmHg 95%
07:00 +12°C° 0.3 mm 2 mps 741 mmHg 96%
08:00 +12°C° 0.3 mm 2 mps 741 mmHg 97%
09:00 +12°C° 0.9 mm 2 mps 741 mmHg 97%
10:00 +12°C° 0.9 mm 2 mps 740 mmHg 97%
11:00 +13°C° 0.9 mm 2 mps 740 mmHg 96%
12:00 +13°C° 1.1 mm 2 mps 740 mmHg 97%
13:00 +13°C° 1.1 mm 2 mps 740 mmHg 97%
14:00 +13°C° 1.1 mm 2 mps 740 mmHg 97%
15:00 +13°C° 0.4 mm 2 mps 740 mmHg 96%
16:00 +13°C° 0.4 mm 1 mps 739 mmHg 95%
17:00 +13°C° 0.4 mm 1 mps 739 mmHg 94%
18:00 +13°C° 0 mm 1 mps 739 mmHg 95%
19:00 +13°C° 0 mm 1 mps 739 mmHg 95%
20:00 +13°C° 0 mm 1 mps 739 mmHg 96%
21:00 +12°C° 0 mm 1 mps 739 mmHg 96%
22:00 +12°C° 0 mm 1 mps 739 mmHg 96%
23:00 +12°C° 0 mm 1 mps 739 mmHg 96%

Day after tomorrow, 14 July, Tuesday

Time Temperature Precipitation Wind Pressure Humidity
00:00 +12°C° 0 mm 2 mps 739 mmHg 96%
01:00 +12°C° 0 mm 2 mps 739 mmHg 95%
02:00 +10°C° 0 mm 2 mps 739 mmHg 95%
03:00 +12°C° 0 mm 2 mps 739 mmHg 94%
04:00 +12°C° 0 mm 2 mps 738 mmHg 93%
05:00 +11°C° 0 mm 3 mps 738 mmHg 92%
06:00 +12°C° 0 mm 3 mps 738 mmHg 87%
07:00 +14°C° 0 mm 3 mps 738 mmHg 81%
08:00 +16°C° 0 mm 3 mps 738 mmHg 76%
09:00 +18°C° 0 mm 4 mps 738 mmHg 69%
10:00 +19°C° 0 mm 4 mps 738 mmHg 62%
11:00 +21°C° 0 mm 4 mps 738 mmHg 55%
12:00 +21°C° 0 mm 4 mps 738 mmHg 54%
13:00 +21°C° 0 mm 4 mps 738 mmHg 53%
14:00 +22°C° 0 mm 4 mps 738 mmHg 52%
15:00 +21°C° 0 mm 4 mps 737 mmHg 56%
16:00 +21°C° 0 mm 4 mps 737 mmHg 60%
17:00 +20°C° 0 mm 3 mps 737 mmHg 65%
18:00 +19°C° 0 mm 3 mps 737 mmHg 66%
19:00 +18°C° 0 mm 3 mps 736 mmHg 68%
20:00 +17°C° 0 mm 3 mps 736 mmHg 69%
21:00 +15°C° 0 mm 4 mps 736 mmHg 68%
22:00 +15°C° 0 mm 4 mps 735 mmHg 67%
23:00 +15°C° 0 mm 4 mps 735 mmHg 65%

15 July, Wednesday

Time Temperature Precipitation Wind Pressure Humidity
00:00 +14°C° 0.3 mm 4 mps 735 mmHg 68%
01:00 +14°C° 0.3 mm 4 mps 735 mmHg 71%
02:00 +13°C° 0.3 mm 5 mps 735 mmHg 74%
03:00 +12°C° 1.2 mm 5 mps 734 mmHg 78%
04:00 +10°C° 1.2 mm 5 mps 734 mmHg 82%
05:00 +10°C° 1.2 mm 5 mps 734 mmHg 86%
06:00 +9°C° 2.2 mm 5 mps 734 mmHg 89%
07:00 +9°C° 2.2 mm 5 mps 734 mmHg 92%
08:00 +9°C° 2.2 mm 5 mps 734 mmHg 96%
09:00 +10°C° 1.7 mm 5 mps 734 mmHg 96%
10:00 +10°C° 1.7 mm 5 mps 734 mmHg 96%
11:00 +10°C° 1.7 mm 5 mps 734 mmHg 96%
12:00 +10°C° 0.6 mm 6 mps 734 mmHg 96%
13:00 +11°C° 0.6 mm 6 mps 734 mmHg 95%
14:00 +11°C° 0.6 mm 6 mps 734 mmHg 95%
15:00 +11°C° 0.2 mm 6 mps 734 mmHg 94%
16:00 +11°C° 0.2 mm 6 mps 734 mmHg 93%
17:00 +11°C° 0.2 mm 6 mps 735 mmHg 92%
18:00 +11°C° 0.4 mm 6 mps 735 mmHg 93%
19:00 +11°C° 0.4 mm 6 mps 735 mmHg 93%
20:00 +12°C° 0.4 mm 5 mps 735 mmHg 93%
21:00 +12°C° 0.4 mm 5 mps 735 mmHg 93%
22:00 +12°C° 0.4 mm 5 mps 735 mmHg 93%
23:00 +10°C° 0.4 mm 5 mps 735 mmHg 93%

16 July, Thursday

Time Temperature Precipitation Wind Pressure Humidity
00:00 +10°C° 0 mm 5 mps 734 mmHg 93%
01:00 +11°C° 0 mm 4 mps 734 mmHg 92%
02:00 +11°C° 0 mm 4 mps 734 mmHg 92%
03:00 +11°C° 0.1 mm 4 mps 734 mmHg 92%
04:00 +12°C° 0.1 mm 4 mps 734 mmHg 92%
05:00 +12°C° 0.1 mm 4 mps 734 mmHg 92%
06:00 +12°C° 0.2 mm 4 mps 734 mmHg 93%
07:00 +12°C° 0.2 mm 4 mps 734 mmHg 94%
08:00 +12°C° 0.2 mm 4 mps 734 mmHg 95%
09:00 +12°C° 0.3 mm 4 mps 735 mmHg 96%
10:00 +12°C° 0.3 mm 4 mps 735 mmHg 96%
11:00 +12°C° 0.3 mm 4 mps 735 mmHg 97%
12:00 +13°C° 0.2 mm 4 mps 735 mmHg 96%
13:00 +13°C° 0.2 mm 5 mps 735 mmHg 95%
14:00 +14°C° 0.2 mm 5 mps 735 mmHg 94%
15:00 +13°C° 0.2 mm 4 mps 735 mmHg 95%
16:00 +13°C° 0.2 mm 4 mps 735 mmHg 96%
17:00 +13°C° 0.2 mm 4 mps 735 mmHg 97%
18:00 +13°C° 0.1 mm 4 mps 735 mmHg 97%
19:00 +13°C° 0.1 mm 4 mps 736 mmHg 97%
20:00 +13°C° 0.1 mm 3 mps 736 mmHg 97%
21:00 +13°C° 0.1 mm 3 mps 736 mmHg 97%
22:00 +13°C° 0.1 mm 3 mps 736 mmHg 97%
23:00 +12°C° 0.1 mm 3 mps 736 mmHg 97%

17 July, Friday

Time Temperature Precipitation Wind Pressure Humidity
00:00 +12°C° 0 mm 3 mps 736 mmHg 97%
01:00 +12°C° 0 mm 3 mps 736 mmHg 97%
02:00 +12°C° 0 mm 3 mps 736 mmHg 97%
03:00 +12°C° 0 mm 3 mps 736 mmHg 97%
04:00 +12°C° 0 mm 3 mps 736 mmHg 96%
05:00 +12°C° 0 mm 3 mps 735 mmHg 96%
06:00 +12°C° 0 mm 3 mps 736 mmHg 94%
07:00 +13°C° 0 mm 3 mps 736 mmHg 92%
08:00 +14°C° 0 mm 3 mps 736 mmHg 90%
09:00 +14°C° 0 mm 3 mps 736 mmHg 88%
10:00 +14°C° 0 mm 3 mps 736 mmHg 87%
11:00 +16°C° 0 mm 3 mps 736 mmHg 85%
12:00 +16°C° 0 mm 3 mps 737 mmHg 84%
13:00 +16°C° 0 mm 3 mps 737 mmHg 83%
14:00 +17°C° 0 mm 2 mps 737 mmHg 81%
15:00 +17°C° 0 mm 2 mps 737 mmHg 82%
16:00 +17°C° 0 mm 2 mps 737 mmHg 82%
17:00 +17°C° 0 mm 2 mps 737 mmHg 82%
18:00 +16°C° 0 mm 2 mps 737 mmHg 86%
19:00 +15°C° 0 mm 1 mps 737 mmHg 90%
20:00 +14°C° 0 mm 1 mps 737 mmHg 94%
21:00 +13°C° 0 mm 1 mps 737 mmHg 95%
22:00 +12°C° 0 mm 1 mps 738 mmHg 96%
23:00 +12°C° 0 mm 1 mps 738 mmHg 97%
Show more